Weather History for Haines, AK

Change the Weather History Date:

Thursday, November 15, 2012

  Actual Average Record
Temperature  
Mean Temperature 36 °F -  
Max Temperature 39 °F 36 °F 49 °F (1976)
Min Temperature 33 °F 28 °F 3 °F (1973)
Degree Days  
Heating Degree Days 29    
Moisture  
Dew Point 35 °F    
Average Humidity 91    
Maximum Humidity 100    
Minimum Humidity 83    
Precipitation  
Precipitation 0.10 in - - ()
Sea Level Pressure  
Sea Level Pressure 29.64 in    
Wind  
Wind Speed 12 mph (East)    
Max Wind Speed 18 mph    
Max Gust Speed 34 mph    
Visibility 10 miles    
Events Rain    
Averages and records for this station are not official NWS values.
T = Trace of Precipitation, MM = Missing Value Source: NWS Daily Summary

Daily Weather History Graph

Daily Weather History Graph

Search for Another Location

Airport:

Trip Planner

Search our weather history database for the weather conditions in past years. The results will help you decide how hot, cold, wet, or windy it might be!

Date:

Astronomy

Nov. 15, 2012 Rise Set
Actual Time 7:57 AM AKST 3:35 PM AKST
Civil Twilight 7:09 AM AKST 4:23 PM AKST
Nautical Twilight 6:18 AM AKST 5:13 PM AKST
Astronomical Twilight 5:30 AM AKST 6:01 PM AKST
Moon 10:21 AM AKST (11/15) 5:15 PM AKST (11/15)
Length of Visible Light 9h 14m
Length of Day
7h 38m
Waxing Crescent, 6% of the Moon is Illuminated
Nov 15
Waxing Crescent
Nov 20
First Quarter
Nov 28
Full
Dec 6
Last Quarter
Dec 12
New

Hourly Weather History & Observations

Time (AKST) Temp. Windchill Dew Point Humidity Pressure Visibility Wind Dir Wind Speed Gust Speed Precip Events Conditions
12:14 AM 37.4 °F 27.5 °F 35.6 °F 93% 29.60 in 10.0 mi ESE 18.4 mph 34.5 mph 0.00 in Rain Light Rain
12:40 AM 37.4 °F 29.3 °F 35.6 °F 93% 29.61 in 8.0 mi East 12.7 mph 18.4 mph 0.01 in Rain Light Rain
12:54 AM 37.0 °F 29.8 °F 35.1 °F 93% 29.61 in 9.0 mi ENE 10.4 mph 21.9 mph 0.03 in Rain Light Rain
1:01 AM 37.4 °F 31.4 °F 35.6 °F 93% 29.60 in 10.0 mi ESE 8.1 mph - 0.00 in Rain Light Rain
1:11 AM 37.4 °F 29.8 °F 35.6 °F 93% 29.60 in 10.0 mi East 11.5 mph 20.7 mph 0.00 in Rain Light Rain
1:33 AM 37.4 °F 29.3 °F 35.6 °F 93% 29.61 in 10.0 mi East 12.7 mph 24.2 mph 0.00 in Rain Light Rain
1:54 AM 37.9 °F 29.2 °F 36.0 °F 93% 29.63 in 8.0 mi East 15.0 mph 28.8 mph 0.01 in Rain Light Rain
2:27 AM 37.4 °F 28.5 °F 35.6 °F 93% 29.63 in 7.0 mi East 15.0 mph 24.2 mph 0.02 in Rain Light Rain
2:54 AM 37.9 °F 30.0 °F 36.0 °F 93% 29.65 in 10.0 mi East 12.7 mph 24.2 mph 0.02 in Rain Light Rain
3:54 AM 37.9 °F 28.5 °F 35.1 °F 89% 29.65 in 10.0 mi ESE 17.3 mph 32.2 mph 0.02 in Rain Light Rain
4:03 AM 37.4 °F 30.3 °F 35.6 °F 93% 29.64 in 10.0 mi East 10.4 mph 26.5 mph 0.00 in Rain Light Rain
4:24 AM 37.4 °F 31.4 °F 35.6 °F 93% 29.64 in 10.0 mi East 8.1 mph 23.0 mph 0.00 in Rain Light Rain
4:41 AM 37.4 °F 29.8 °F 35.6 °F 93% 29.64 in 10.0 mi ESE 11.5 mph 21.9 mph 0.00 in Rain Light Rain
4:54 AM 37.0 °F 28.9 °F 35.1 °F 93% 29.65 in 10.0 mi ESE 12.7 mph 26.5 mph 0.00 in Rain Light Rain
5:05 AM 37.4 °F 29.8 °F 35.6 °F 93% 29.64 in 10.0 mi East 11.5 mph 23.0 mph 0.00 in Rain Light Rain
5:20 AM 37.4 °F 30.3 °F 35.6 °F 93% 29.64 in 10.0 mi East 10.4 mph 19.6 mph 0.00 in Rain Light Rain
5:40 AM 37.4 °F 29.8 °F 35.6 °F 93% 29.64 in 10.0 mi ESE 11.5 mph 18.4 mph 0.00 in   Overcast
5:54 AM 37.9 °F 30.5 °F 36.0 °F 93% 29.66 in 9.0 mi East 11.5 mph 19.6 mph 0.01 in Rain Light Rain
6:54 AM 37.9 °F 30.5 °F 36.0 °F 93% 29.66 in 10.0 mi East 11.5 mph 16.1 mph 0.00 in Rain Light Rain
7:31 AM 37.4 °F 29.3 °F 35.6 °F 93% 29.66 in 10.0 mi East 12.7 mph 21.9 mph 0.00 in Rain Light Rain
7:54 AM 37.9 °F 30.9 °F 36.0 °F 93% 29.67 in 10.0 mi East 10.4 mph 23.0 mph 0.00 in   Overcast
8:54 AM 39.0 °F 34.0 °F 36.0 °F 89% 29.68 in 10.0 mi Variable 6.9 mph 17.3 mph 0.00 in   Overcast
9:54 AM 39.0 °F 32.3 °F 36.0 °F 89% 29.68 in 10.0 mi East 10.4 mph 20.7 mph N/A   Overcast
10:54 AM 39.0 °F 31.8 °F 36.0 °F 89% 29.68 in 10.0 mi East 11.5 mph 20.7 mph N/A   Overcast
11:54 AM 39.0 °F 32.3 °F 36.0 °F 89% 29.68 in 10.0 mi East 10.4 mph 21.9 mph 0.00 in Rain Light Rain
12:54 PM 39.0 °F 32.3 °F 36.0 °F 89% 29.67 in 10.0 mi ENE 10.4 mph 19.6 mph 0.00 in Rain Light Rain
1:15 PM 39.2 °F 32.0 °F 35.6 °F 87% 29.66 in 10.0 mi ENE 11.5 mph 24.2 mph 0.00 in   Overcast
1:30 PM 39.2 °F 31.6 °F 35.6 °F 87% 29.66 in 10.0 mi East 12.7 mph 20.7 mph 0.00 in Rain Light Rain
1:41 PM 39.2 °F 32.0 °F 35.6 °F 87% 29.66 in 10.0 mi ENE 11.5 mph 18.4 mph 0.00 in Rain Light Rain
1:50 PM 39.2 °F 31.2 °F 35.6 °F 87% 29.66 in 10.0 mi ENE 13.8 mph - 0.00 in Rain Light Rain
1:54 PM 39.0 °F 31.8 °F 36.0 °F 89% 29.67 in 10.0 mi ENE 11.5 mph 19.6 mph 0.00 in Rain Light Rain
2:04 PM 39.2 °F 31.6 °F 35.6 °F 87% 29.66 in 10.0 mi ENE 12.7 mph 20.7 mph 0.00 in Rain Light Rain
2:11 PM 39.2 °F 32.0 °F 35.6 °F 87% 29.66 in 10.0 mi East 11.5 mph 18.4 mph 0.00 in Rain Light Rain
2:18 PM 39.2 °F 32.0 °F 35.6 °F 87% 29.66 in 10.0 mi ENE 11.5 mph 19.6 mph 0.00 in Rain Light Rain
2:54 PM 37.9 °F 31.5 °F 36.0 °F 93% 29.66 in 10.0 mi ENE 9.2 mph 17.3 mph 0.01 in Rain Light Rain
3:17 PM 39.2 °F 32.5 °F 35.6 °F 87% 29.65 in 10.0 mi ENE 10.4 mph 19.6 mph 0.00 in Rain Light Rain
3:54 PM 39.0 °F 32.8 °F 35.1 °F 86% 29.65 in 10.0 mi East 9.2 mph 16.1 mph 0.00 in Rain Light Rain
4:03 PM 39.2 °F 32.5 °F 35.6 °F 87% 29.64 in 10.0 mi ENE 10.4 mph 19.6 mph 0.00 in Rain Light Rain
4:54 PM 39.0 °F 32.3 °F 35.1 °F 86% 29.64 in 10.0 mi ENE 10.4 mph - 0.00 in   Overcast
5:54 PM 39.9 °F 34.5 °F 35.1 °F 83% 29.64 in 10.0 mi ENE 8.1 mph - 0.00 in Rain Light Rain
6:42 PM 39.2 °F 33.6 °F 35.6 °F 87% 29.62 in 10.0 mi East 8.1 mph - 0.00 in Rain Light Rain
6:54 PM 37.9 °F 32.1 °F 35.1 °F 89% 29.63 in 10.0 mi East 8.1 mph - 0.00 in   Overcast
7:54 PM 37.0 °F 34.5 °F 36.0 °F 96% 29.62 in 10.0 mi East 3.5 mph - 0.00 in Rain Light Rain
8:45 PM 37.4 °F - 35.6 °F 93% 29.61 in 10.0 mi Calm Calm - 0.00 in Rain Light Rain
8:54 PM 36.0 °F - 35.1 °F 97% 29.62 in 10.0 mi Calm Calm - 0.00 in Rain Light Rain
9:32 PM 35.6 °F - 35.6 °F 100% 29.61 in 10.0 mi Calm Calm - 0.00 in Rain Light Rain
9:54 PM 36.0 °F - 35.1 °F 97% 29.61 in 10.0 mi Calm Calm - 0.00 in   Overcast
10:27 PM 33.8 °F 28.6 °F 33.8 °F 100% 29.60 in 10.0 mi WNW 5.8 mph - N/A   Overcast
10:54 PM 34.0 °F 27.2 °F 33.1 °F 96% 29.60 in 10.0 mi WNW 8.1 mph - N/A   Overcast
11:13 PM 35.6 °F 28.6 °F 33.8 °F 93% 29.58 in 10.0 mi WNW 9.2 mph - N/A   Overcast
11:33 PM 35.6 °F 28.0 °F 33.8 °F 93% 29.58 in 10.0 mi WNW 10.4 mph - N/A   Overcast
11:54 PM 35.1 °F 27.4 °F 34.0 °F 96% 29.58 in 10.0 mi WNW 10.4 mph - N/A   Overcast